Flag for United Kingdom Weather past 2 weeks in Aylesbury, England, United Kingdom

Now
42 °F

Quite cool.


Feels Like: 38 °F
Forecast: 37 / 52 °F
Wind: 6 mph from Southwest

Location: High Wicombe Hqstc

Current Time: Mar 6, 2015 at 6:58:50 AM

Latest Report: Mar 6, 2015 at 6:00 AM


Visibility: 22 mi

Pressure: 30.58 "Hg

Humidity: 70%

Dew point: 33 °F

Location of AylesburyLocation

Historic Weather in Aylesbury — Graph

°F

Aylesbury temperature yesterday

Maximum temperature yesterday: 51 °F (at 12:00 PM)
Minimum temperature yesterday: 35 °F (at 2:00 AM)
Average temperature yesterday: 41 °F

Past Weeks' High & Low Weather Summary

 TemperatureHumidityPressure
High51 °F (Mar 5, 12:00 PM)100% (Feb 20, 2:00 AM)30.72 "Hg (Feb 20, 2:00 AM)
Low31 °F (Feb 22, 7:00 AM)46% (Mar 2, 2:00 PM)29.23 "Hg (Feb 22, 10:00 PM)
Average40 °F82%29.86 "Hg
* Reported Feb 19 5:00 AM — Mar 6 5:00 AM, Aylesbury, Weather by CustomWeather, © 2015

Note: Actual official high and low records may vary slightly from our data, if they occured in-between our weather recording intervals... More about our weather records

Advertising

Aylesbury weather history for previous 24 hours

 ConditionsComfort  
Time TempWeatherWind HumidityBarometerVisibility
5:00 AM
Fri, Mar 6
42 °FQuite cool.5 mph71%30.60 "Hg19 mi
4:00 AM42 °FQuite cool.5 mph71%30.60 "Hg19 mi
3:00 AM42 °FQuite cool.6 mph70%30.60 "Hg22 mi
2:00 AM42 °FQuite cool.5 mph71%30.61 "Hg25 mi
1:00 AM42 °FQuite cool.5 mph71%30.62 "Hg22 mi
12:00 AM43 °FQuite cool.6 mph70%30.63 "Hg19 mi
11:00 PM
Thu, Mar 5
43 °FQuite cool.8 mph69%30.63 "Hg19 mi
10:00 PM43 °FQuite cool.6 mph71%30.64 "Hg17 mi
8:00 PM44 °FQuite cool.6 mph72%30.64 "Hg25 mi
7:00 PM44 °FQuite cool.5 mph73%30.64 "Hg31 mi
6:00 PM45 °FQuite cool.8 mph71%30.64 "Hg28 mi
5:00 PM46 °FCool.6 mph65%30.64 "Hg22 mi
4:00 PM47 °FCool.8 mphN/A30.64 "HgN/A
3:00 PMN/A8 mphN/AN/AN/A
2:00 PMN/A8 mphN/AN/AN/A
1:00 PMN/A7 mphN/AN/AN/A
12:00 PM51 °FCool.7 mph67%30.67 "Hg10 mi
11:00 AM45 °FQuite cool.7 mph79%30.70 "Hg6 mi
10:00 AM42 °FQuite cool.7 mph85%30.71 "Hg9 mi
9:00 AM40 °FQuite cool.5 mph85%30.72 "Hg9 mi
8:00 AM36 °FChilly.3 mph79%30.71 "Hg15 mi
7:00 AM36 °FChilly.3 mph75%30.71 "Hg19 mi
6:00 AM36 °FChilly.3 mph76%30.71 "Hg17 mi
Weather by CustomWeather, © 2015

See weather overviewHow to use our weather pages